Location: Recife
(8.0585°S, 34.8848°W)
Time: 10:13:58
(UTC-03:00)

Altair - Pass Details

Date: 23 April 2026
Orbit: 1501 x 1682 km, 47.2° (Epoch: 20 May)

Event Time Altitude Azimuth Distance (km) Brightness Sun altitude
Rises 06:34:58 0° 220° (SW) 4,810 9.6 16.8°
Reaches altitude 10° 06:38:02 10° 219° (SW) 3,845 9.2 17.5°
Maximum altitude 06:47:57 87° 130° (SE) 1,661 8.1 19.8°
Drops below altitude 10° 06:58:06 10° 41° (NE) 3,931 10.8 22.2°
Sets 07:01:16 0° 40° (NE) 4,920 11.1 23.0°
